Powrót do katalogu

SL-8 DEB

AktywnyLEO
NORAD 21251·DEBRIS·🇷🇺 Russia

Wystrzelony Feb 12, 1991 z Plesetsk Cosmodrome

Loading…

Następne Przeloty (najbliższe 24 godziny)

TLE

ŚwieżeSource: Space-Track

Epoka: Sep 14, 2026, 14:43 UTC

1 21251U 91009BJ  26257.61372885  .00000061  00000-0  57240-3 0  9990
2 21251  73.9517 225.4563 0147798  56.1084  61.6793 12.36348331602365

Śledź SL-8 DEB w czasie rzeczywistym z AllMySat

Download on the App Store